#timestamp,LO_Frequency,Hit,StdDev 
1617976815.5,286046998.7,N
1617976835.3,286046996.7,P
1617976855.1,286046999.3,N
1617976875.9,286047002.4,N
1617976895.7,286047000.1,N
1617976915.6,286046999.1,N
1617976935.4,286046999.2,N
1617976955.2,286046998.6,N
1617976975.1,286047001.7,N
1617976976.0,286047001.7,N
1617976995.8,286047001.6,N
1617977015.6,286047000.3,N
1617977035.5,286047002.7,N
1617977055.3,286047002.3,N
1617977075.2,286047001.5,N
1617977095.9,286047002.0,N
1617977115.7,286047000.6,N
1617977135.6,286047000.6,N
1617977155.4,286047000.4,N
1617977175.3,286046999.7,N
1617977195.1,286047004.4,N
1617977196.0,286047004.4,N
1617977215.8,286047004.2,N
1617977235.7,286047004.3,N
1617977255.5,286046999.7,N
1617977275.3,286047002.7,N
1617977295.2,286047000.8,N
1617977315.0,286046999.4,N
1617977315.9,286046999.4,N
1617977335.8,286046996.5,N
1617977355.6,286046999.3,N
1617977375.4,286046999.4,N
1617977395.3,286046998.1,N
1617977415.1,286047001.1,N
1617977435.8,286047000.8,N
1617977455.7,286047000.8,N
1617977475.5,286047000.3,N
1617977495.4,286046999.9,N
1617977515.2,286046998.9,N
1617977535.0,286046998.5,N
1617977535.9,286046998.5,N
1617977555.8,286046998.7,N
1617977575.6,286046996.6,N
1617977595.4,286046997.0,N
1617977615.3,286046996.6,N
1617977635.1,286046998.8,N
1617977655.9,286046997.0,N
1617977675.7,286046998.0,N
1617977695.5,286046994.9,N
1617977715.4,286046995.2,N
1617977735.2,286046997.0,N
1617977755.0,286046997.7,N
1617977755.9,286046997.7,N
1617977775.8,286046997.8,N
1617977795.6,286046994.9,N
1617977815.5,286046993.3,Y
1617977835.3,286046999.1,P
1617977855.1,286046998.1,P
1617977875.9,286046999.2,N
1617977895.7,286046996.9,Y
1617977915.6,286046999.4,P
1617977935.4,286046999.5,N
1617977955.2,286046997.3,P
1617977975.1,286046996.7,Y
1617977976.0,286046996.7,P
1617977995.8,286046998.8,N
1617978015.7,286046999.6,N
1617978035.5,286046999.4,N
1617978055.3,286046999.0,N
1617978075.2,286046998.8,N
1617978095.0,286046999.2,N
1617978095.9,286046999.2,N
1617978115.7,286046998.7,N
1617978135.6,286046998.9,N
1617978155.4,286046998.4,N
1617978175.3,286046998.8,N
1617978195.1,286046999.3,N
1617978196.0,286046999.3,N
1617978215.8,286046996.5,Y
1617978235.7,286047001.1,P
1617978255.5,286046998.4,N
1617978275.3,286046999.6,N
1617978295.2,286046999.2,N
1617978315.0,286046997.1,Y
1617978315.9,286046997.1,P
1617978335.8,286046999.5,N
1617978355.6,286046998.6,N
1617978375.4,286046996.6,Y
1617978395.3,286046998.1,P
1617978415.1,286046998.1,P
1617978435.9,286046998.8,P
1617978455.7,286046996.9,Y
1617978475.5,286046999.2,P
1617978495.4,286046999.2,N
1617978515.2,286046999.0,N
1617978535.0,286046998.7,Y
1617978536.0,286046998.7,P
1617978555.8,286046999.8,N
1617978575.6,286047000.4,N
1617978595.5,286047000.1,N
1617978615.3,286047000.7,N
1617978635.1,286047001.0,N
1617978655.9,286047000.3,N
1617978675.7,286047000.6,N
1617978695.5,286047000.7,N
1617978715.4,286046998.6,N
1617978735.2,286046999.2,N
1617978755.1,286046998.9,N
1617978756.0,286046998.9,N
1617978775.8,286046998.9,N
1617978795.6,286046998.8,N
1617978815.5,286046999.0,N
1617978835.3,286047000.8,N
1617978855.1,286046998.2,N
1617978875.9,286046999.3,N
1617978895.7,286046997.4,Y
1617978915.6,286046999.4,P
1617978935.4,286046998.9,P
1617978955.2,286047001.1,P
1617978975.1,286046998.1,N
1617978976.0,286046998.1,N
1617978995.8,286046998.5,N
1617979015.7,286046998.6,N
1617979035.5,286046999.1,N
1617979055.3,286046999.1,N
1617979075.2,286046996.8,Y
1617979095.9,286046998.3,P
1617979115.7,286047001.2,P
1617979135.6,286047000.0,N
1617979155.4,286047000.2,N
1617979175.3,286046999.9,N
1617979195.1,286047000.5,N
1617979196.0,286047000.5,N
1617979215.8,286047001.0,N
1617979235.7,286046999.9,N
1617979255.5,286047001.8,N
1617979275.3,286047000.4,N
1617979295.2,286046999.0,N
1617979315.0,286046998.8,N
1617979315.9,286046998.8,N
1617979335.8,286046997.3,N
1617979355.6,286046996.7,N
1617979375.4,286046998.8,N
1617979395.3,286047000.1,N
1617979415.1,286047002.6,N
1617979435.8,286047002.2,N
1617979455.7,286047000.9,N
1617979475.5,286047000.1,N
1617979495.4,286047004.0,N
1617979515.2,286047000.7,N
1617979535.0,286046997.7,N
1617979535.9,286046997.7,N
1617979555.8,286046997.6,N
1617979575.6,286046997.4,N
1617979625.5,286046999.2,E
1617979635.4,286047000.7,N
1617979655.2,286047000.3,P
1617979675.1,286047000.4,N
1617979676.0,286047000.4,N
1617979695.8,286046999.9,N
1617979715.7,286047002.5,Y
1617979735.5,286047002.5,P
1617979755.3,286047001.8,N
1617979775.2,286047003.6,P
1617979795.9,286047007.0,Y
1617979815.7,286047003.0,P
1617979835.6,286047005.5,P
1617979855.4,286047003.2,N
1617979875.3,286047003.1,N
1617979895.1,286047003.5,Y
1617979915.9,286046999.3,P
1617979935.7,286046999.2,N
1617979955.5,286047000.3,N
1617979975.4,286046998.9,N
1617979995.2,286046998.4,N
1617980015.1,286047000.3,N
1617980016.0,286047000.3,N
1617980035.8,286047001.9,N
1617980055.7,286047003.9,N
1617980075.5,286047000.5,N
1617980095.3,286047000.1,N
1617980115.2,286047002.8,N
1617980135.0,286047002.7,N
1617980135.9,286047002.7,N
1617980155.8,286047003.2,N
1617980175.6,286047003.3,N
1617980195.5,286047004.3,N
1617980215.3,286047001.5,N
1617980235.1,286047004.3,N
1617980255.9,286047003.5,N
1617980275.7,286047001.2,N
1617980295.6,286046999.1,N
1617980315.4,286046998.9,N
1617980335.2,286046999.9,N
1617980355.1,286047002.6,N
1617980356.0,286047002.6,N
1617980375.8,286047000.8,N
1617980395.6,286047001.0,N
